Time,TemperatureF,DewpointF,PressureIn,WindDirection,WindDirectionDegrees,WindSpeedMPH,WindSpeedGustMPH,Humidity,HourlyPrecipIn,Conditions,Clouds,dailyrainin,SolarRadiationWatts/m^2,SoftwareType,DateUTC
2013-03-06 17:33:00,42.6,24.8,30.24,NNW,338,5.8,5.8,49,0.00,CLR,OVC,0.00,0.0,WeatherDisplay:10.37,2013-03-06 23:33:00,
2013-03-06 17:38:00,42.3,24.4,30.24,NNW,338,0.0,0.0,49,0.00,CLR,OVC,0.00,0.0,WeatherDisplay:10.37,2013-03-06 23:38:00,
2013-03-06 17:43:00,41.9,24.1,30.24,NNW,338,0.0,0.0,49,0.00,CLR,OVC,0.00,0.0,WeatherDisplay:10.37,2013-03-06 23:43:00,
2013-03-06 17:48:00,41.2,23.9,30.24,NNW,338,0.0,0.0,50,0.00,CLR,OVC,0.00,0.0,WeatherDisplay:10.37,2013-03-06 23:48:00,
2013-03-06 17:53:00,40.5,23.7,30.24,NE,45,2.6,2.6,51,0.00,CLR,OVC,0.00,0.0,WeatherDisplay:10.37,2013-03-06 23:53:00,
2013-03-06 17:58:00,39.9,23.2,30.24,ENE,68,2.6,2.6,51,0.00,CLR,OVC,0.00,0.0,WeatherDisplay:10.37,2013-03-06 23:58:00,
2013-03-06 18:03:00,39.2,23.0,30.24,NE,45,2.9,2.9,52,0.00,CLR,OVC,0.00,0.0,WeatherDisplay:10.37,2013-03-07 00:03:00,
2013-03-06 18:08:00,38.5,23.3,30.24,East,90,2.4,2.6,54,0.00,CLR,OVC,0.00,0.0,WeatherDisplay:10.37,2013-03-07 00:08:00,
2013-03-06 18:13:00,38.1,23.4,30.24,ESE,112,0.0,0.0,55,0.00,CLR,OVC,0.00,0.0,WeatherDisplay:10.37,2013-03-07 00:13:00,
2013-03-06 18:18:00,37.4,22.7,30.24,NNE,22,1.1,0.0,55,0.00,CLR,OVC,0.00,0.0,WeatherDisplay:10.37,2013-03-07 00:18:00,
2013-03-06 18:23:00,37.2,22.9,30.24,East,90,0.0,0.0,56,0.00,CLR,OVC,0.00,0.0,WeatherDisplay:10.37,2013-03-07 00:23:00,
2013-03-06 18:28:00,36.9,22.6,30.24,NE,45,0.0,0.0,56,0.00,CLR,OVC,0.00,0.0,WeatherDisplay:10.37,2013-03-07 00:28:00,
2013-03-06 18:33:00,36.5,22.7,30.24,NNE,22,2.3,0.0,57,0.00,CLR,OVC,0.00,0.0,WeatherDisplay:10.37,2013-03-07 00:33:00,
2013-03-06 18:38:00,36.1,22.4,30.24,NNE,22,1.1,0.0,57,0.00,CLR,OVC,0.00,0.0,WeatherDisplay:10.37,2013-03-07 00:38:00,
2013-03-06 18:43:00,35.8,22.4,30.24,NE,45,0.0,0.0,58,0.00,CLR,OVC,0.00,0.0,WeatherDisplay:10.37,2013-03-07 00:43:00,
2013-03-06 18:48:00,35.8,22.4,30.24,ENE,68,2.0,0.0,58,0.00,CLR,OVC,0.00,0.0,WeatherDisplay:10.37,2013-03-07 00:48:00,
2013-03-06 18:53:00,35.8,22.8,30.24,North,0,1.1,0.0,59,0.00,CLR,OVC,0.00,0.0,WeatherDisplay:10.37,2013-03-07 00:53:00,
2013-03-06 18:58:00,35.6,22.7,30.21,NE,45,2.6,2.6,59,0.00,CLR,OVC,0.00,0.0,WeatherDisplay:10.37,2013-03-07 00:58:00,
2013-03-06 19:03:00,35.8,23.6,30.21,NNE,22,3.5,3.5,61,0.00,CLR,OVC,0.00,0.0,WeatherDisplay:10.37,2013-03-07 01:03:00,
2013-03-06 19:08:00,35.6,23.5,30.21,ENE,68,1.1,1.6,61,0.00,CLR,OVC,0.00,0.0,WeatherDisplay:10.37,2013-03-07 01:08:00,
2013-03-06 19:13:00,35.4,23.7,30.24,NE,45,3.6,3.6,62,0.00,CLR,OVC,0.00,0.0,WeatherDisplay:10.37,2013-03-07 01:13:00,
2013-03-06 19:18:00,35.8,24.0,30.24,ESE,112,4.0,4.0,62,0.00,CLR,OVC,0.00,0.0,WeatherDisplay:10.37,2013-03-07 01:18:00,
2013-03-06 19:23:00,35.6,23.9,30.24,ENE,68,3.6,3.6,62,0.00,CLR,OVC,0.00,0.0,WeatherDisplay:10.37,2013-03-07 01:23:00,
2013-03-06 19:28:00,35.4,23.7,30.24,NNE,22,3.5,3.5,62,0.00,CLR,OVC,0.00,0.0,WeatherDisplay:10.37,2013-03-07 01:28:00,
2013-03-06 19:33:00,35.2,23.5,30.24,NE,45,3.3,3.3,62,0.00,CLR,OVC,0.00,0.0,WeatherDisplay:10.37,2013-03-07 01:33:00,
2013-03-06 19:38:00,34.9,23.6,30.24,NE,45,3.5,3.5,63,0.00,CLR,OVC,0.00,0.0,WeatherDisplay:10.37,2013-03-07 01:38:00,
2013-03-06 19:43:00,34.5,23.2,30.21,ESE,112,2.3,2.3,63,0.00,CLR,OVC,0.00,0.0,WeatherDisplay:10.37,2013-03-07 01:43:00,
2013-03-06 19:48:00,34.3,23.0,30.21,East,90,2.3,2.3,63,0.00,CLR,OVC,0.00,0.0,WeatherDisplay:10.37,2013-03-07 01:48:00,
2013-03-06 19:53:00,34.3,23.0,30.21,ESE,112,2.6,2.6,63,0.00,CLR,OVC,0.00,0.0,WeatherDisplay:10.37,2013-03-07 01:53:00,
2013-03-06 19:58:00,34.0,22.7,30.24,ESE,112,2.3,2.3,63,0.00,CLR,OVC,0.00,0.0,WeatherDisplay:10.37,2013-03-07 01:58:00,
2013-03-06 20:03:00,33.8,22.5,30.24,ESE,112,0.0,0.0,63,0.00,CLR,OVC,0.00,0.0,WeatherDisplay:10.37,2013-03-07 02:03:00,
2013-03-06 20:08:00,33.6,22.7,30.24,ESE,112,3.5,3.5,64,0.00,CLR,OVC,0.00,0.0,WeatherDisplay:10.37,2013-03-07 02:08:00,
2013-03-06 20:13:00,33.3,22.4,30.24,ESE,112,2.3,2.3,64,0.00,CLR,OVC,0.00,0.0,WeatherDisplay:10.37,2013-03-07 02:13:00,
2013-03-06 20:18:00,33.3,22.8,30.24,East,90,3.5,3.5,65,0.00,CLR,OVC,0.00,0.0,WeatherDisplay:10.37,2013-03-07 02:18:00,
2013-03-06 20:23:00,33.1,22.9,30.24,ESE,112,2.3,2.3,66,0.00,CLR,OVC,0.00,0.0,WeatherDisplay:10.37,2013-03-07 02:23:00,
2013-03-06 20:28:00,32.9,22.8,30.21,ESE,112,2.3,2.3,66,0.00,CLR,OVC,0.00,0.0,WeatherDisplay:10.37,2013-03-07 02:28:00,
2013-03-06 20:33:00,32.9,22.8,30.21,SE,135,2.3,2.3,66,0.00,CLR,OVC,0.00,0.0,WeatherDisplay:10.37,2013-03-07 02:33:00,
2013-03-06 20:39:00,32.4,22.3,30.21,SE,135,2.3,2.3,66,0.00,CLR,OVC,0.00,0.0,WeatherDisplay:10.37,2013-03-07 02:39:00,
2013-03-06 20:44:00,32.4,22.6,30.24,SE,135,1.1,0.0,67,0.00,CLR,OVC,0.00,0.0,WeatherDisplay:10.37,2013-03-07 02:44:00,
2013-03-06 20:49:00,32.2,22.4,30.24,East,90,1.1,0.0,67,0.00,CLR,OVC,0.00,0.0,WeatherDisplay:10.37,2013-03-07 02:49:00,
2013-03-06 20:54:00,32.0,22.3,30.24,ESE,112,2.3,2.3,67,0.00,CLR,OVC,0.00,0.0,WeatherDisplay:10.37,2013-03-07 02:54:00,
2013-03-06 20:59:00,32.0,22.3,30.21,NE,45,2.3,2.3,67,0.00,CLR,OVC,0.00,0.0,WeatherDisplay:10.37,2013-03-07 02:59:00,
2013-03-06 21:04:00,31.3,21.9,30.21,North,0,0.0,0.0,68,0.00,CLR,OVC,0.00,0.0,WeatherDisplay:10.37,2013-03-07 03:04:00,
2013-03-06 21:09:00,31.1,21.8,30.21,ESE,112,1.4,1.4,68,0.00,CLR,OVC,0.00,0.0,WeatherDisplay:10.37,2013-03-07 03:09:00,
2013-03-06 21:14:00,31.1,22.1,30.21,East,90,2.6,2.6,69,0.00,CLR,OVC,0.00,0.0,WeatherDisplay:10.37,2013-03-07 03:14:00,
2013-03-06 21:19:00,31.6,23.0,30.21,East,90,2.3,2.3,70,0.00,CLR,OVC,0.00,0.0,WeatherDisplay:10.37,2013-03-07 03:19:00,
2013-03-06 21:24:00,31.5,22.8,30.21,East,90,2.4,2.4,70,0.00,CLR,OVC,0.00,0.0,WeatherDisplay:10.37,2013-03-07 03:24:00,